Home > Weather > Valladolid > Past weeks

Flag for Spain Past Weather in Valladolid, Spain — Yesterday and Last 2 Weeks

Now
84 °F

Passing clouds.


Feels Like: 82 °F
Forecast: 58 / 85 °F
Wind: 9 mph from Northwest

Location: Valladolid / Villanubla

Current Time: Jul 1, 2016 at 7:06:18 PM

Latest Report: Jul 1, 2016 at 6:30 PM


Visibility: N/A

Pressure: 30.07 "Hg (27.74 "Hg at 712m altitude)

Humidity: 23%

Dew Point: 43 °F

Location of ValladolidLocation

Past Weather in Valladolid — Graph

°F

Valladolid Temperature Yesterday

Maximum temperature yesterday: 84 °F (at 5:30 PM)
Minimum temperature yesterday: 54 °F (at 7:00 AM)
Average temperature yesterday: 74 °F

High & Low Weather Summary for the Past Weeks

 TemperatureHumidityPressure
High91 °F (Jun 22, 4:30 PM)100% (Jun 17, 7:30 AM)30.45 "Hg (Jun 17, 7:30 AM)
Low41 °F (Jun 17, 7:00 AM)16% (Jun 22, 2:00 PM)29.83 "Hg (Jun 16, 6:00 PM)
Average71 °F46%30.15 "Hg
* Reported Jun 16 6:00 PM — Jul 1 6:00 PM, Valladolid, Weather by CustomWeather, © 2016

Note: Actual official high and low records may vary slightly from our data, if they occured in-between our weather recording intervals... More about our weather records

Advertising

Valladolid Weather History for the Previous 24 Hours

Scroll right to see more
 ConditionsComfort  
Time TempWeatherWind HumidityBarometerVisibility
6:00 PM
Fri, Jul 1
84 °FPassing clouds.10 mph27%30.09 "HgN/A
5:30 PM84 °FPassing clouds.9 mph27%30.09 "HgN/A
5:00 PM84 °FSunny.5 mph27%30.09 "Hg10 mi
4:30 PM84 °FPassing clouds.12 mph29%30.09 "HgN/A
4:00 PM82 °FSunny.6 mph28%30.09 "Hg10 mi
3:30 PM82 °FPassing clouds.7 mph30%30.09 "HgN/A
3:00 PM82 °FPassing clouds.7 mph30%30.09 "HgN/A
2:30 PM81 °FPassing clouds.2 mph32%30.09 "HgN/A
2:00 PM79 °FPassing clouds.8 mph37%30.12 "HgN/A
1:30 PM79 °FSunny.2 mph37%30.12 "Hg10 mi
1:00 PM77 °FSunny.3 mph39%30.12 "Hg10 mi
12:30 PM77 °FSunny.3 mph39%30.12 "Hg10 mi
12:00 PM75 °FSunny.5 mph44%30.12 "Hg10 mi
11:30 AM73 °FSunny.2 mph47%30.12 "Hg10 mi
11:00 AM72 °FSunny.2 mph50%30.12 "Hg10 mi
10:30 AM68 °FSunny.2 mph56%30.12 "Hg10 mi
10:00 AM66 °FSunny.2 mph56%30.12 "Hg10 mi
9:30 AM63 °FPassing clouds.3 mph64%30.12 "HgN/A
9:00 AM61 °FSunny.5 mph68%30.12 "Hg10 mi
8:30 AM57 °FSunny.5 mph72%30.12 "Hg10 mi
8:00 AM55 °FSunny.5 mph82%30.09 "Hg10 mi
7:30 AM52 °FPassing clouds.6 mph88%30.09 "HgN/A
7:00 AM54 °FClear.2 mph82%30.09 "Hg10 mi
9:30 PM
Thu, Jun 30
79 °FPassing clouds.8 mph30%30.07 "HgN/A
9:00 PM81 °FPassing clouds.8 mph30%30.07 "HgN/A
8:30 PM81 °FSunny.8 mph28%30.04 "Hg10 mi
8:00 PM82 °FPassing clouds.9 mph26%30.04 "HgN/A
7:30 PM82 °FPassing clouds.12 mph26%30.04 "HgN/A
7:00 PM84 °FPassing clouds.6 mph25%30.04 "HgN/A
Weather by CustomWeather, © 2016

See weather overviewHow to use our weather pages